#timestamp,LO_Frequency,Hit,StdDev 
1567418415.5,286046999.6,N
1567418435.4,286046995.3,N
1567418455.2,286046999.1,N
1567418475.1,286046996.5,N
1567418476.0,286046996.5,N
1567418495.8,286046996.0,N
1567418515.6,286046995.1,N
1567418535.5,286046992.4,N
1567418555.3,286046991.4,N
1567418575.2,286046989.1,N
1567418595.9,286046990.1,N
1567418615.7,286046990.1,N
1567418635.6,286046992.0,N
1567418655.4,286046990.5,N
1567418675.2,286046990.1,N
1567418695.1,286046990.6,N
1567418696.0,286046990.6,N
1567418715.8,286046991.0,N
1567418735.7,286046991.5,N
1567418755.5,286046990.3,N
1567418775.3,286046993.4,N
1567418795.2,286046993.5,N
1567418815.0,286046995.6,N
1567418815.9,286046995.6,N
1567418835.7,286046993.4,N
1567418855.6,286047000.6,N
1567418875.4,286046995.7,N
1567418895.3,286046991.7,N
1567418915.1,286046994.5,N
1567418916.0,286046994.5,N
1567418935.8,286046992.3,N
1567418955.7,286046992.5,N
1567418975.5,286046996.0,N
1567418995.4,286046990.1,Y
1567419015.2,286046999.5,P
1567419035.0,286046997.5,N
1567419035.9,286046997.5,N
1567419055.8,286046995.6,N
1567419075.6,286046998.6,N
1567419095.4,286046999.6,N
1567419115.3,286046999.9,N
1567419135.1,286047002.6,N
1567419155.9,286046998.3,N
1567419175.7,286046998.5,N
1567419195.5,286046999.6,N
1567419215.4,286046997.1,N
1567419235.2,286046997.4,N
1567419255.0,286046996.2,N
1567419256.0,286046996.2,N
1567419275.8,286046997.5,N
1567419295.6,286046996.3,N
1567419315.5,286046995.8,N
1567419335.3,286046996.8,N
1567419355.1,286047003.4,N
1567419375.9,286047003.3,N
1567419395.7,286047004.2,N
1567419415.6,286047002.0,N
1567419435.4,286047000.7,N
1567419455.2,286046996.9,N
1567419475.1,286046996.8,N
1567419476.0,286046996.8,N
1567419495.8,286047000.8,N
1567419515.6,286046997.5,N
1567419535.5,286046996.1,N
1567419555.3,286046999.1,N
1567419575.1,286046994.9,N
1567419595.9,286046997.1,N
1567419615.7,286047001.9,N
1567419635.6,286047001.5,N
1567419655.4,286047003.9,N
1567419675.2,286046999.1,N
1567419695.1,286046999.9,N
1567419696.0,286046999.9,N
1567419715.8,286047001.1,N
1567419735.7,286046997.9,N
1567419755.5,286047000.1,N
1567419775.3,286046999.9,N
1567419795.2,286047004.1,N
1567419815.9,286046998.1,N
1567419835.7,286047003.6,N
1567419855.6,286047001.1,N
1567419875.4,286046998.3,N
1567419895.2,286046996.5,N
1567419915.1,286046997.9,N
1567419916.0,286046997.9,N
1567419935.8,286046996.2,N
1567419955.7,286047001.2,N
1567419975.5,286047000.6,N
1567419995.3,286047000.2,N
1567420015.2,286047003.8,N
1567420035.0,286047007.2,N
1567420035.9,286047007.2,N
1567420055.8,286047004.7,N
1567420075.6,286047005.9,N
1567420095.4,286047002.6,N
1567420115.3,286046999.2,N
1567420135.1,286047002.5,N
1567420155.8,286047004.7,N
1567420175.7,286047002.7,N
1567420195.5,286047005.9,N
1567420215.4,286047005.7,N
1567420235.2,286047005.7,N
1567420255.0,286046998.6,N
1567420255.9,286046998.6,N
1567420275.8,286047000.8,N
1567420295.6,286046996.7,N
1567420315.4,286046998.3,N
1567420335.3,286046995.0,N
1567420355.1,286046998.5,N
1567420375.9,286047002.7,N
1567420395.7,286047007.1,N
1567420415.5,286047008.6,N
1567420435.4,286047010.3,N
1567420455.2,286047005.5,N
1567420475.0,286047003.3,N
1567420476.0,286047003.3,N
1567420495.8,286047008.8,N
1567420515.6,286047005.5,N
1567420535.5,286047005.2,N
1567420555.3,286047002.3,N
1567420575.1,286047002.5,N
1567420595.9,286046999.7,N
1567420615.7,286046998.4,N
1567420635.6,286046997.3,N
1567420655.4,286046999.5,N
1567420675.2,286046999.0,N
1567420695.1,286047000.0,N
1567420696.0,286047000.0,N
1567420715.8,286047002.4,N
1567420735.7,286047001.2,N
1567420755.5,286046996.9,N
1567420775.3,286047000.5,N
1567420795.2,286046998.2,N
1567420815.0,286046995.0,N
1567420815.9,286046995.0,N
1567420835.7,286046997.8,N
1567420855.6,286046995.5,N
1567420875.4,286047002.2,N
1567420895.3,286047002.0,N
1567420915.1,286046999.6,N
1567420935.8,286046996.2,N
1567420955.7,286046998.2,N
1567420975.5,286047000.3,N
1567420995.4,286047003.4,N
1567421015.2,286047007.6,N
1567421035.0,286047007.1,N
1567421035.9,286047007.1,N
1567421055.8,286047003.7,N
1567421075.6,286047005.8,N
1567421095.4,286047004.7,N
1567421115.3,286047002.6,N
1567421135.1,286047001.3,N
1567421155.9,286046997.5,N
1567421175.7,286046996.3,N
1567421195.5,286046997.8,N
1567421215.4,286046998.8,N
1567421235.2,286047001.7,N
1567421255.1,286046998.2,N
1567421256.0,286046998.2,N
1567421275.8,286047000.7,N
1567421295.6,286047000.4,N
1567421315.5,286047002.5,N
1567421335.3,286047005.8,N
1567421355.1,286047005.5,N
1567421375.9,286047004.3,N
1567421395.7,286047003.4,N
1567421415.6,286047007.2,N
1567421435.4,286047005.0,N
1567421455.2,286047006.7,N
1567421475.1,286047008.3,N
1567421476.0,286047008.3,N
1567421495.8,286047011.7,Y
1567421515.7,286047007.9,P
1567421535.5,286047003.7,N
1567421555.3,286047011.9,P
1567421575.2,286047000.0,N
1567421595.0,286047002.1,N
1567421595.9,286047002.1,N
1567421615.8,286046999.0,N
1567421635.6,286046995.3,N
1567421655.4,286046995.9,N
1567421675.3,286046992.3,N
1567421695.1,286046993.2,N
1567421715.8,286046992.8,N
1567421735.7,286046992.7,N
1567421755.5,286046994.3,N
1567421775.4,286046990.7,N
1567421795.2,286046989.1,N
1567421815.0,286046990.2,N
1567421815.9,286046990.2,N
1567421835.8,286046994.3,N
1567421855.6,286046991.3,N
1567421875.4,286046990.2,N
1567421895.3,286046989.0,N
1567421915.1,286046989.6,N
1567421935.9,286046989.6,N
1567421955.7,286046989.9,N
1567421975.5,286046987.8,N
1567421995.4,286046983.7,N
